Home > Weather > Bnei Brak > Past weeks

Flag for Israel Past Weather in Bnei Brak, Israel — Yesterday and Last 2 Weeks

Now
68 °F

Passing clouds.


Feels Like: 68 °F
Forecast: 69 / 76 °F
Wind: 7 mph from South

Location: Ben Gurion International Airport

Current Time: May 28, 2016 at 3:19:37 AM

Latest Report: May 28, 2016 at 2:50 AM


Visibility: N/A

Pressure: 29.86 "Hg

Humidity: 73%

Dew Point: 59 °F

Location of Bnei BrakLocation

Past Weather in Bnei Brak — Graph

°F

Bnei Brak Temperature Yesterday

Maximum temperature yesterday: 77 °F (at 11:20 AM)
Minimum temperature yesterday: 66 °F (at 3:50 AM)
Average temperature yesterday: 72 °F

High & Low Weather Summary for the Past Weeks

 TemperatureHumidityPressure
High106 °F (May 15, 12:50 PM)88% (May 17, 6:50 AM)30.01 "Hg (May 17, 6:50 AM)
Low63 °F (May 13, 3:50 AM)9% (May 22, 11:50 AM)29.71 "Hg (May 16, 5:50 PM)
Average76 °F53%29.90 "Hg
* Reported May 13 2:20 AM — May 28 2:20 AM, Bnei Brak, Weather by CustomWeather, © 2016

Note: Actual official high and low records may vary slightly from our data, if they occured in-between our weather recording intervals... More about our weather records

Advertising

Bnei Brak Weather History for the Previous 24 Hours

Scroll right to see more
 ConditionsComfort  
Time TempWeatherWind HumidityBarometerVisibility
2:20 AM
Sat, May 28
68 °FPassing clouds.6 mph73%29.86 "HgN/A
1:50 AM68 °FPassing clouds.6 mph73%29.86 "HgN/A
1:20 AM70 °FPassing clouds.5 mph69%29.86 "HgN/A
12:50 AM70 °FPassing clouds.7 mph69%29.86 "HgN/A
12:20 AM70 °FPassing clouds.6 mph69%29.86 "HgN/A
11:50 PM
Fri, May 27
70 °FPassing clouds.3 mph69%29.89 "HgN/A
11:20 PM70 °FPassing clouds.5 mph69%29.89 "HgN/A
10:50 PM70 °FPassing clouds.8 mph69%29.89 "HgN/A
10:20 PM72 °FPassing clouds.7 mph69%29.89 "HgN/A
9:50 PM72 °FPassing clouds.8 mph69%29.89 "HgN/A
9:20 PM72 °FPassing clouds.8 mph69%29.89 "HgN/A
8:50 PM72 °FPassing clouds.8 mph69%29.86 "HgN/A
8:20 PM72 °FScattered clouds.7 mph69%29.86 "HgN/A
7:50 PM72 °FScattered clouds.10 mph69%29.86 "HgN/A
7:20 PM73 °FScattered clouds.10 mph65%29.86 "HgN/A
6:50 PM73 °FScattered clouds.12 mph65%29.86 "HgN/A
6:20 PM73 °FScattered clouds.15 mph61%29.86 "HgN/A
5:50 PM73 °FScattered clouds.15 mph61%29.86 "HgN/A
5:20 PM75 °FScattered clouds.15 mph57%29.86 "HgN/A
4:50 PM75 °FScattered clouds.15 mph57%29.86 "HgN/A
4:20 PM75 °FScattered clouds.16 mph54%29.86 "HgN/A
3:50 PM75 °FScattered clouds.17 mph57%29.86 "HgN/A
3:20 PM77 °FScattered clouds.14 mph54%29.86 "HgN/A
2:50 PM75 °FScattered clouds.14 mph54%29.86 "HgN/A
2:20 PM77 °FScattered clouds.16 mph51%29.86 "HgN/A
1:50 PM77 °FScattered clouds.16 mph54%29.86 "HgN/A
1:20 PM77 °FScattered clouds.17 mph51%29.86 "HgN/A
12:50 PM77 °FScattered clouds.16 mph51%29.86 "HgN/A
12:20 PM77 °FScattered clouds.15 mph54%29.86 "HgN/A
11:50 AM77 °FScattered clouds.16 mph47%29.86 "HgN/A
11:20 AM77 °FScattered clouds.13 mph51%29.86 "HgN/A
10:50 AM75 °FPartly sunny.13 mph54%29.86 "HgN/A
10:20 AM75 °FScattered clouds.12 mph54%29.86 "HgN/A
9:50 AM75 °FScattered clouds.9 mph50%29.86 "HgN/A
9:20 AM73 °FPartly sunny.5 mph53%29.86 "HgN/A
8:50 AM73 °FPartly sunny.7 mph57%29.86 "HgN/A
8:20 AM72 °FScattered clouds.7 mph61%29.86 "HgN/A
7:50 AM70 °FScattered clouds.8 mph60%29.83 "HgN/A
7:20 AM68 °FScattered clouds.8 mph64%29.83 "HgN/A
6:50 AM66 °FPassing clouds.7 mph68%29.83 "HgN/A
6:20 AM66 °FPassing clouds.5 mph73%29.83 "HgN/A
5:50 AM66 °FPassing clouds.6 mph73%29.83 "HgN/A
5:20 AM66 °FPassing clouds.6 mph73%29.80 "HgN/A
4:50 AM66 °FPassing clouds.5 mph68%29.80 "HgN/A
4:20 AM66 °FPassing clouds.3 mph64%29.80 "HgN/A
3:50 AM66 °FPassing clouds.3 mph64%29.80 "HgN/A
3:20 AM68 °FPassing clouds.3 mph64%29.80 "HgN/A
Weather by CustomWeather, © 2016

See weather overviewHow to use our weather pages